DW4207 Weather Reports


Display with metric or nautical units.
time (UTC)temp
F
wind
direction
speed
MPH
gust
MPH
rain 1hr
in
rain 24hr
in
rain mn
in
humidity
%
barometer
mb
20260906212003 80 26 3.0 9.0 0.00 0.00 0.00 46 1017.0
20260906211003 80 44 3.0 10.0 0.00 0.00 0.00 45 1017.0
20260906210024 80 18 3.0 8.0 0.00 0.00 0.00 49 1017.0
20260906205003 80 24 4.0 12.0 0.00 0.00 0.00 47 1017.0
20260906204024 80 16 4.0 10.0 0.00 0.00 0.00 49 1017.0
20260906203003 80 39 3.0 12.0 0.00 0.00 0.00 48 1017.2
20260906202024 80 22 5.0 12.0 0.00 0.00 0.00 46 1017.1
20260906201003 80 13 4.0 12.0 0.00 0.00 0.00 47 1017.2
20260906200003 80 13 5.0 11.0 0.00 0.00 0.00 46 1017.1
20260906195003 80 51 4.0 11.0 0.00 0.00 0.00 46 1017.1
20260906194003 80 29 4.0 11.0 0.00 0.00 0.00 44 1017.2
20260906193025 80 9 4.0 11.0 0.00 0.00 0.00 46 1017.3
20260906192003 80 24 4.0 10.0 0.00 0.00 0.00 46 1017.3
20260906191003 81 16 4.0 10.0 0.00 0.00 0.00 43 1017.5
20260906190003 80 30 4.0 9.0 0.00 0.00 0.00 47 1017.4
20260906185003 80 13 4.0 12.0 0.00 0.00 0.00 47 1017.3
20260906184006 80 6 4.0 11.0 0.00 0.00 0.00 50 1017.2
20260906183024 79 43 4.0 11.0 0.00 0.00 0.00 48 1017.3
20260906182024 80 11 4.0 15.0 0.00 0.00 0.00 50 1017.1
20260906181024 79 46 4.0 10.0 0.00 0.00 0.00 50 1017.4
20260906180003 80 16 4.0 11.0 0.00 0.00 0.00 45 1017.4
20260906175003 79 41 4.0 10.0 0.00 0.00 0.00 48 1017.5
20260906174003 79 20 4.0 9.0 0.00 0.00 0.00 51 1017.6
20260906173024 79 16 4.0 10.0 0.00 0.00 0.00 50 1017.7
20260906172024 79 25 4.0 11.0 0.00 0.00 0.00 53 1017.8
20260906171003 79 7 5.0 11.0 0.00 0.00 0.00 53 1017.8
20260906170003 79 14 5.0 9.0 0.00 0.00 0.00 58 1018.0
20260906165003 78 360 5.0 11.0 0.00 0.00 0.00 61 1018.1
20260906164003 77 26 4.0 9.0 0.00 0.00 0.00 62 1018.0
20260906163003 77 46 5.0 10.0 0.00 0.00 0.00 56 1018.1
20260906162024 78 79 4.0 11.0 0.00 0.00 0.00 60 1018.0
20260906161003 77 42 4.0 11.0 0.00 0.00 0.00 62 1018.1
20260906160004 77 20 4.0 12.0 0.00 0.00 0.00 64 1018.1
20260906155003 76 39 4.0 10.0 0.00 0.00 0.00 61 1018.3
20260906154003 76 73 4.0 10.0 0.00 0.00 0.00 64 1018.3
20260906153003 75 33 4.0 11.0 0.00 0.00 0.00 66 1018.3
20260906152003 75 57 4.0 10.0 0.00 0.00 0.00 65 1018.2
20260906151003 74 65 4.0 10.0 0.00 0.00 0.00 68 1018.3
20260906150003 74 25 4.0 10.0 0.00 0.00 0.00 69 1018.4
20260906145024 73 32 4.0 10.0 0.00 0.00 0.00 70 1018.5
20260906144003 73 20 4.0 11.0 0.00 0.00 0.00 71 1018.3
20260906143024 72 39 4.0 12.0 0.00 0.00 0.00 72 1018.2
20260906142003 72 58 4.0 10.0 0.00 0.00 0.00 72 1018.2
20260906141003 71 48 3.0 9.0 0.00 0.00 0.00 74 1018.1
20260906140003 71 31 5.0 11.0 0.00 0.00 0.00 74 1018.1
20260906135004 71 29 3.0 10.0 0.00 0.00 0.00 75 1018.2
20260906134003 70 44 2.0 10.0 0.00 0.00 0.00 76 1018.2
20260906133003 69 49 3.0 9.0 0.00 0.00 0.00 77 1018.2
20260906132024 68 25 4.0 8.0 0.00 0.00 0.00 79 1018.4
20260906131003 68 10 3.0 10.0 0.00 0.00 0.00 80 1018.1
20260906130003 67 25 4.0 11.0 0.00 0.00 0.00 81 1018.0
20260906125003 67 28 3.0 9.0 0.00 0.00 0.00 81 1017.8
20260906124003 67 18 3.0 10.0 0.00 0.00 0.00 83 1017.8
20260906123003 66 14 3.0 9.0 0.00 0.00 0.00 83 1017.8
20260906122024 66 4 3.0 8.0 0.00 0.00 0.00 84 1017.7
20260906121024 66 10 2.0 5.0 0.00 0.00 0.00 84 1017.3
20260906120004 65 22 1.0 4.0 0.00 0.00 0.00 84 1017.2
20260906115003 65 31 1.0 5.0 0.00 0.00 0.00 85 1017.0
20260906114024 65 27 2.0 3.0 0.00 0.00 0.00 85 1017.0
20260906113003 65 33 1.0 5.0 0.00 0.00 0.00 85 1016.7
20260906112003 65 19 2.0 5.0 0.00 0.00 0.00 84 1016.7
20260906111003 65 12 2.0 4.0 0.00 0.00 0.00 83 1016.7
20260906110003 65 6 1.0 7.0 0.00 0.00 0.00 83 1016.6
20260906105003 66 14 1.0 5.0 0.00 0.00 0.00 82 1016.5
20260906104003 66 14 2.0 6.0 0.00 0.00 0.00 81 1016.4
20260906103003 66 27 2.0 6.0 0.00 0.00 0.00 80 1016.2
20260906102003 66 23 3.0 9.0 0.00 0.00 0.00 80 1016.2
20260906101003 67 23 3.0 9.0 0.00 0.00 0.00 80 1016.1
20260906100003 67 27 2.0 6.0 0.00 0.00 0.00 80 1016.1
20260906095024 67 22 2.0 8.0 0.00 0.00 0.00 79 1015.9
20260906094024 67 28 3.0 8.0 0.00 0.00 0.00 79 1015.8
20260906093003 67 19 2.0 7.0 0.00 0.00 0.00 79 1015.8
20260906092003 67 21 2.0 5.0 0.00 0.00 0.00 79 1015.9
20260906091024 68 31 3.0 9.0 0.00 0.00 0.00 78 1015.9
20260906090003 68 30 2.0 8.0 0.00 0.00 0.00 78 1015.7
20260906085003 68 31 2.0 8.0 0.00 0.00 0.00 78 1015.7
20260906084024 68 35 2.0 8.0 0.00 0.00 0.00 79 1015.6
20260906083024 68 30 2.0 8.0 0.00 0.00 0.00 79 1015.7
20260906082003 68 32 2.0 8.0 0.00 0.00 0.00 79 1015.7
20260906081024 69 42 2.0 6.0 0.00 0.00 0.00 79 1015.7
20260906080003 69 32 1.0 6.0 0.00 0.00 0.00 79 1015.7
20260906075024 69 38 2.0 5.0 0.00 0.00 0.00 80 1015.7
20260906074003 69 31 2.0 6.0 0.00 0.00 0.00 80 1015.6
20260906073003 70 29 2.0 8.0 0.00 0.00 0.00 81 1015.5
20260906072003 70 25 2.0 6.0 0.00 0.00 0.00 81 1015.5
20260906071003 70 14 2.0 6.0 0.00 0.00 0.00 82 1015.5
20260906070003 70 18 2.0 8.0 0.00 0.00 0.00 83 1015.6
20260906065024 71 16 2.0 5.0 0.00 0.00 0.00 84 1015.6
20260906064024 71 25 3.0 9.0 0.00 0.00 0.00 84 1015.4
20260906063003 72 23 3.0 9.0 0.00 0.00 0.00 85 1015.4
20260906062003 72 14 3.0 7.0 0.00 0.00 0.00 85 1015.4
20260906061003 73 15 3.0 9.0 0.00 0.00 0.00 85 1015.4
20260906060003 73 20 2.0 7.0 0.00 0.00 0.00 85 1015.2
20260906055003 73 29 1.0 6.0 0.00 0.00 0.00 84 1015.1
20260906054003 73 30 1.0 9.0 0.00 0.00 0.00 84 1015.1
20260906053024 74 18 3.0 9.0 0.00 0.00 0.00 84 1015.0
20260906052024 74 40 2.0 7.0 0.00 0.00 0.00 84 1014.9
20260906051003 74 28 3.0 7.0 0.00 0.00 0.00 84 1014.9
20260906050003 74 25 3.0 6.0 0.00 0.00 0.00 84 1015.0
20260906045003 74 30 3.0 9.0 0.00 0.00 0.00 84 1014.9
20260906044003 74 49 1.0 6.0 0.00 0.00 0.00 84 1014.9
20260906043003 75 23 3.0 8.0 0.00 0.00 0.00 84 1014.8
20260906042003 75 20 2.0 8.0 0.00 0.00 0.00 84 1014.8
20260906041024 75 31 3.0 7.0 0.00 0.00 0.00 83 1014.8
20260906040025 75 29 2.0 8.0 0.00 0.00 0.00 84 1014.7
20260906035024 75 49 2.0 8.0 0.00 0.00 0.00 84 1014.7
20260906034003 75 29 1.0 9.0 0.00 0.00 0.00 84 1014.7
20260906033024 76 35 2.0 8.0 0.00 0.00 0.00 84 1014.6
20260906032003 76 46 2.0 6.0 0.00 0.00 0.00 83 1014.5
20260906031003 76 70 2.0 9.0 0.00 0.00 0.00 83 1014.6
20260906030003 76 84 2.0 8.0 0.00 0.00 0.00 83 1014.4
20260906025003 76 41 3.0 12.0 0.00 0.00 0.00 83 1014.2
20260906024024 77 35 3.0 11.0 0.00 0.00 0.00 82 1014.2
20260906023003 78 60 3.0 13.0 0.00 0.00 0.00 82 1014.1
20260906022024 78 51 1.0 8.0 0.00 0.00 0.00 82 1013.9
20260906021003 78 25 3.0 10.0 0.00 0.00 0.00 82 1013.8
20260906020003 78 22 1.0 3.0 0.00 0.00 0.00 82 1013.7
20260906015004 78 356 2.0 7.0 0.00 0.00 0.00 82 1013.6
20260906014024 78 351 1.0 2.0 0.00 0.00 0.00 82 1013.5
20260906013003 78 335 0.0 2.0 0.00 0.00 0.00 81 1013.1
20260906012003 78 329 0.0 2.0 0.00 0.00 0.00 80 1013.0
20260906011003 78 0 0.0 0.0 0.00 0.00 0.00 80 1012.9
20260906010003 78 360 0.0 2.0 0.00 0.00 0.00 80 1012.8
20260906005003 78 354 0.0 2.0 0.00 0.00 0.00 79 1012.8
20260906004003 78 343 0.0 2.0 0.00 0.00 0.00 79 1012.6
20260906003003 78 0 0.0 0.0 0.00 0.00 0.00 79 1012.3
20260906002003 79 321 0.0 2.0 0.00 0.00 0.00 78 1012.3
20260906001024 80 337 1.0 2.0 0.00 0.00 0.00 77 1012.4
20260906000003 80 349 1.0 3.0 0.00 0.00 0.00 76 1012.4
20260905235024 81 339 1.0 3.0 0.00 0.00 0.00 76 1012.6
20260905234003 81 351 1.0 3.0 0.00 0.00 0.00 75 1012.6
20260905233003 82 351 1.0 2.0 0.00 0.00 0.00 73 1012.6
20260905232003 82 5 2.0 7.0 0.00 0.00 0.00 72 1012.6
20260905231003 83 2 2.0 5.0 0.00 0.00 0.00 71 1012.6
20260905230003 83 313 1.0 2.0 0.00 0.00 0.00 70 1012.2
20260905225024 83 282 1.0 3.0 0.00 0.00 0.00 70 1011.9
20260905224003 83 239 1.0 3.0 0.00 0.00 0.00 70 1011.6
20260905223003 83 233 1.0 3.0 0.00 0.00 0.00 69 1012.0
20260905222024 82 271 0.0 2.0 0.00 0.00 0.00 69 1012.2
20260905221003 82 248 0.0 2.0 0.00 0.00 0.00 68 1012.2
20260905220003 83 294 1.0 4.0 0.00 0.00 0.00 67 1011.8
20260905215003 83 242 2.0 4.0 0.00 0.00 0.00 70 1011.7
20260905214003 84 251 2.0 5.0 0.00 0.00 0.00 69 1012.1
20260905213003 85 288 2.0 7.0 0.00 0.00 0.00 70 1012.3